EW9204 Weather Reports


Display with metric or nautical units.
time (UTC)temp
F
wind
direction
speed
MPH
gust
MPH
rain 1hr
in
rain 24hr
in
rain mn
in
humidity
%
barometer
mb
20260905200520 77 323 4.0 11.0 0.00 0.00 0.00 59 1011.4
20260905200105 77 319 3.0 11.0 0.00 0.00 0.00 56 1011.3
20260905195520 77 15 3.0 11.0 0.00 0.00 0.00 58 1011.3
20260905195017 77 137 3.0 11.0 0.00 0.00 0.00 59 1011.3
20260905194541 77 55 4.0 10.0 0.00 0.00 0.00 57 1011.3
20260905194018 77 40 3.0 10.0 0.00 0.00 0.00 59 1011.3
20260905193516 77 336 1.0 10.0 0.00 0.00 0.00 60 1011.3
20260905193040 76 90 3.0 10.0 0.00 0.00 0.00 59 1011.3
20260905192518 76 265 5.0 10.0 0.00 0.00 0.00 57 1011.4
20260905192022 77 51 5.0 12.0 0.00 0.00 0.00 57 1011.4
20260905191537 77 291 4.0 12.0 0.00 0.00 0.00 56 1011.3
20260905191023 76 333 1.0 13.0 0.00 0.00 0.00 62 1011.4
20260905190519 76 28 5.0 14.0 0.00 0.00 0.00 61 1011.4
20260905190036 76 328 2.0 14.0 0.00 0.00 0.00 61 1011.4
20260905185521 76 9 5.0 14.0 0.00 0.00 0.00 60 1011.5
20260905185020 76 51 3.0 9.0 0.00 0.00 0.00 61 1011.6
20260905184549 76 51 4.0 9.0 0.00 0.00 0.00 60 1011.6
20260905184018 76 298 3.0 10.0 0.00 0.00 0.00 59 1011.6
20260905183516 77 103 3.0 10.0 0.00 0.00 0.00 60 1011.7
20260905183042 77 63 1.0 10.0 0.00 0.00 0.00 64 1011.7
20260905182525 76 51 2.0 10.0 0.00 0.00 0.00 61 1011.7
20260905182023 76 27 3.0 10.0 0.00 0.00 0.00 64 1011.7
20260905181546 75 27 2.0 9.0 0.00 0.00 0.00 61 1011.7
20260905181019 75 300 3.0 12.0 0.00 0.00 0.00 63 1011.9
20260905180519 75 80 1.0 12.0 0.00 0.00 0.00 64 1012.0
20260905180042 75 44 4.0 12.0 0.00 0.00 0.00 62 1012.0
20260905175525 75 272 4.0 9.0 0.00 0.00 0.00 63 1012.0
20260905175019 75 347 3.0 9.0 0.00 0.00 0.00 64 1012.0
20260905174540 75 296 3.0 9.0 0.00 0.00 0.00 63 1011.9
20260905174018 75 30 3.0 10.0 0.00 0.00 0.00 65 1012.0
20260905173519 75 48 3.0 13.0 0.00 0.00 0.00 63 1012.0
20260905173045 75 178 5.0 13.0 0.00 0.00 0.00 64 1012.1
20260905172521 75 26 2.0 11.0 0.00 0.00 0.00 64 1012.0
20260905172021 74 21 5.0 11.0 0.00 0.00 0.00 63 1012.2
20260905171540 75 319 5.0 12.0 0.00 0.00 0.00 64 1012.3
20260905171021 74 51 4.0 12.0 0.00 0.00 0.00 64 1012.2
20260905170522 74 346 5.0 12.0 0.00 0.00 0.00 64 1012.2
20260905170038 75 40 4.0 11.0 0.00 0.00 0.00 63 1012.2
20260905165520 75 16 3.0 10.0 0.00 0.00 0.00 67 1012.1
20260905165023 74 225 3.0 11.0 0.00 0.00 0.00 64 1012.2
20260905164543 74 33 3.0 11.0 0.00 0.00 0.00 65 1012.3
20260905164025 74 19 5.0 11.0 0.00 0.00 0.00 65 1012.3
20260905163521 74 146 3.0 10.0 0.00 0.00 0.00 65 1012.5
20260905163043 74 57 3.0 10.0 0.00 0.00 0.00 65 1012.5
20260905162518 74 123 4.0 10.0 0.00 0.00 0.00 65 1012.5
20260905162020 74 24 2.0 16.0 0.00 0.00 0.00 65 1012.4
20260905161541 74 83 6.0 16.0 0.00 0.00 0.00 65 1012.5
20260905161023 73 67 4.0 14.0 0.00 0.00 0.00 66 1012.4
20260905160519 73 273 5.0 12.0 0.00 0.00 0.00 66 1012.4
20260905160040 73 309 2.0 12.0 0.00 0.00 0.00 66 1012.5
20260905155518 74 307 4.0 12.0 0.00 0.00 0.00 64 1012.5
20260905155020 74 328 3.0 12.0 0.00 0.00 0.00 68 1012.6
20260905154545 74 328 3.0 12.0 0.00 0.00 0.00 67 1012.5
20260905154021 74 42 4.0 14.0 0.00 0.00 0.00 64 1012.5
20260905153521 73 90 5.0 14.0 0.00 0.00 0.00 65 1012.5
20260905153041 73 38 2.0 9.0 0.00 0.00 0.00 68 1012.5
20260905152523 72 291 3.0 11.0 0.00 0.00 0.00 67 1012.4
20260905152019 72 336 4.0 11.0 0.00 0.00 0.00 67 1012.4
20260905151550 72 19 4.0 11.0 0.00 0.00 0.00 68 1012.5
20260905151021 72 341 4.0 11.0 0.00 0.00 0.00 69 1012.5
20260905150521 71 47 3.0 9.0 0.00 0.00 0.00 70 1012.6
20260905150046 71 319 2.0 9.0 0.00 0.00 0.00 72 1012.7
20260905145520 71 51 3.0 11.0 0.00 0.00 0.00 70 1012.8
20260905145021 72 124 2.0 11.0 0.00 0.00 0.00 71 1013.0
20260905144546 73 34 4.0 11.0 0.00 0.00 0.00 69 1012.8
20260905144021 73 68 3.0 11.0 0.00 0.00 0.00 69 1013.1
20260905143520 72 284 4.0 12.0 0.00 0.00 0.00 69 1013.1
20260905143039 72 13 5.0 12.0 0.00 0.00 0.00 68 1013.1
20260905142525 72 311 3.0 12.0 0.00 0.00 0.00 73 1013.1
20260905142019 72 26 5.0 12.0 0.00 0.00 0.00 71 1013.1
20260905141541 71 236 4.0 14.0 0.00 0.00 0.00 71 1013.1
20260905141020 72 29 6.0 14.0 0.00 0.00 0.00 72 1013.0
20260905140518 71 104 5.0 12.0 0.00 0.00 0.00 74 1013.0
20260905140042 71 250 3.0 13.0 0.00 0.00 0.00 75 1013.0
20260905135521 71 287 6.0 13.0 0.00 0.00 0.00 73 1013.0
20260905135022 71 33 5.0 13.0 0.00 0.00 0.00 74 1013.1
20260905134542 71 67 4.0 13.0 0.00 0.00 0.00 74 1013.0
20260905134021 71 328 4.0 15.0 0.00 0.00 0.00 75 1013.0
20260905133521 71 9 5.0 15.0 0.00 0.00 0.00 74 1012.9
20260905133038 71 301 3.0 9.0 0.00 0.00 0.00 77 1013.0
20260905132517 71 309 2.0 8.0 0.00 0.00 0.00 76 1013.0
20260905132019 70 334 3.0 8.0 0.00 0.00 0.00 79 1013.2
20260905131551 70 293 2.0 8.0 0.00 0.00 0.00 80 1013.0
20260905131020 69 139 2.0 9.0 0.00 0.00 0.00 79 1013.0
20260905130518 69 41 1.0 9.0 0.00 0.00 0.00 79 1013.0
20260905130038 69 36 3.0 9.0 0.00 0.00 0.00 79 1012.9
20260905125521 69 304 3.0 5.0 0.00 0.00 0.00 79 1013.0
20260905125023 69 296 2.0 6.0 0.00 0.00 0.00 80 1012.9
20260905124538 68 282 1.0 7.0 0.00 0.00 0.00 82 1012.9
20260905124022 68 325 2.0 7.0 0.00 0.00 0.00 82 1012.7
20260905123525 67 284 2.0 5.0 0.00 0.00 0.00 83 1012.6
20260905123100 67 9 1.0 4.0 0.00 0.00 0.00 83 1012.5
20260905122518 67 254 1.0 5.0 0.00 0.00 0.00 84 1012.5
20260905122018 66 273 1.0 5.0 0.00 0.00 0.00 85 1012.6
20260905121539 66 51 1.0 5.0 0.00 0.00 0.00 86 1012.4
20260905121018 65 126 1.0 4.0 0.00 0.00 0.00 87 1012.5
20260905120523 65 16 1.0 4.0 0.00 0.00 0.00 87 1012.6
20260905120041 65 38 0.0 4.0 0.00 0.00 0.00 88 1012.4
20260905115523 65 291 1.0 4.0 0.00 0.00 0.00 88 1012.4
20260905115018 64 9 1.0 4.0 0.00 0.00 0.00 90 1012.3
20260905114544 63 51 1.0 4.0 0.00 0.00 0.00 91 1012.3
20260905114018 63 9 1.0 3.0 0.00 0.00 0.00 91 1012.1
20260905113518 63 67 1.0 3.0 0.00 0.00 0.00 92 1011.9
20260905113037 62 78 1.0 4.0 0.00 0.00 0.00 92 1011.8
20260905112519 62 76 0.0 4.0 0.00 0.00 0.00 91 1011.5
20260905112018 62 123 0.0 4.0 0.00 0.00 0.00 92 1011.4
20260905111538 62 309 1.0 4.0 0.00 0.00 0.00 92 1011.4
20260905111020 61 41 1.0 4.0 0.00 0.00 0.00 92 1011.2
20260905110528 61 56 1.0 3.0 0.00 0.00 0.00 92 1011.2
20260905110042 61 0 1.0 3.0 0.00 0.00 0.00 92 1011.1
20260905105518 61 26 1.0 3.0 0.00 0.00 0.00 93 1011.1
20260905105017 61 0 1.0 3.0 0.00 0.00 0.00 93 1011.1
20260905104539 61 64 0.0 2.0 0.00 0.00 0.00 93 1011.1
20260905104016 61 0 1.0 3.0 0.00 0.00 0.00 93 1011.0
20260905103521 61 0 0.0 3.0 0.00 0.00 0.00 93 1011.1
20260905103045 61 9 1.0 3.0 0.00 0.00 0.00 93 1011.0
20260905102520 61 0 0.0 2.0 0.00 0.00 0.00 93 1011.1
20260905102020 61 0 0.0 2.0 0.00 0.00 0.00 93 1011.1
20260905101536 61 126 0.0 3.0 0.00 0.00 0.00 93 1011.1
20260905101020 61 316 0.0 3.0 0.00 0.00 0.00 93 1011.0
20260905100520 61 44 0.0 2.0 0.00 0.00 0.00 93 1010.9
20260905100051 61 41 1.0 2.0 0.00 0.00 0.00 93 1010.8
20260905095517 61 41 0.0 2.0 0.00 0.00 0.00 93 1010.8
20260905095018 61 51 0.0 2.0 0.00 0.00 0.00 93 1010.8
20260905094539 61 115 0.0 2.0 0.00 0.00 0.00 93 1010.8
20260905094017 61 34 0.0 2.0 0.00 0.00 0.00 93 1010.8
20260905093521 61 68 0.0 2.0 0.00 0.00 0.00 93 1010.7
20260905093038 62 41 0.0 2.0 0.00 0.00 0.00 93 1010.7
20260905092519 62 9 0.0 2.0 0.00 0.00 0.00 92 1010.7
20260905092020 62 9 1.0 2.0 0.00 0.00 0.00 92 1010.6
20260905091544 62 0 0.0 1.0 0.00 0.00 0.00 92 1010.7
20260905091021 62 0 0.0 2.0 0.00 0.00 0.00 92 1010.7
20260905090519 62 9 0.0 2.0 0.00 0.00 0.00 92 1010.7
20260905090035 62 9 1.0 2.0 0.00 0.00 0.00 92 1010.7
20260905085518 63 34 0.0 2.0 0.00 0.00 0.00 91 1010.7
20260905085021 63 0 0.0 2.0 0.00 0.00 0.00 91 1010.8
20260905084537 63 9 0.0 2.0 0.00 0.00 0.00 91 1010.7
20260905084021 63 325 0.0 2.0 0.00 0.00 0.00 91 1010.6
20260905083524 63 0 0.0 2.0 0.00 0.00 0.00 90 1010.6
20260905083036 64 0 0.0 2.0 0.00 0.00 0.00 90 1010.6
20260905082519 64 34 0.0 2.0 0.00 0.00 0.00 91 1010.7
20260905082019 64 9 0.0 2.0 0.00 0.00 0.00 90 1010.7
20260905081537 64 0 0.0 2.0 0.00 0.00 0.00 91 1010.8
20260905081021 64 325 0.0 2.0 0.00 0.00 0.00 91 1010.8
20260905080516 65 9 0.0 1.0 0.00 0.00 0.00 91 1010.8
20260905080107 65 334 0.0 1.0 0.00 0.00 0.00 91 1010.7
20260905075521 65 334 0.0 3.0 0.00 0.02 0.00 91 1010.7
20260905075019 65 0 0.0 3.0 0.00 0.02 0.00 90 1010.7
20260905074539 65 9 0.0 2.0 0.00 0.02 0.00 90 1010.7
20260905074020 65 0 0.0 1.0 0.00 0.02 0.00 90 1010.7
20260905073517 65 309 0.0 2.0 0.00 0.02 0.00 90 1010.6
20260905073039 65 325 0.0 2.0 0.00 0.02 0.00 90 1010.6
20260905072518 65 51 0.0 2.0 0.00 0.02 0.00 89 1010.6
20260905072018 65 0 0.0 2.0 0.00 0.02 0.00 89 1010.5
20260905071541 65 93 0.0 2.0 0.00 0.02 0.00 89 1010.6
20260905071021 65 0 0.0 2.0 0.00 0.02 0.00 89 1010.7
20260905070516 65 325 0.0 2.0 0.00 0.02 0.00 88 1010.6
20260905070049 65 309 0.0 2.0 0.00 0.02 0.00 88 1010.6
20260905065522 65 0 0.0 2.0 0.00 0.02 0.00 88 1010.6
20260905065019 66 0 0.0 2.0 0.00 0.02 0.00 87 1010.7
20260905064547 66 0 0.0 2.0 0.00 0.02 0.00 87 1010.8
20260905064020 66 126 0.0 1.0 0.00 0.02 0.00 87 1010.8
20260905063519 66 0 0.0 2.0 0.00 0.02 0.00 87 1010.9
20260905063042 66 0 0.0 2.0 0.00 0.02 0.00 86 1010.9
20260905062516 66 0 0.0 3.0 0.00 0.02 0.00 87 1010.9
20260905062017 66 26 1.0 3.0 0.00 0.02 0.00 88 1011.0
20260905061541 66 72 1.0 3.0 0.00 0.02 0.00 89 1011.0
20260905061022 66 9 0.0 3.0 0.00 0.02 0.00 90 1011.0
20260905060518 66 0 0.0 2.0 0.00 0.02 0.00 90 1011.0
20260905060049 66 0 0.0 3.0 0.00 0.02 0.00 90 1011.1
20260905055519 66 0 0.0 3.0 0.00 0.07 0.00 90 1011.1
20260905055022 65 67 1.0 3.0 0.00 0.07 0.00 90 1011.1
20260905054538 65 68 0.0 2.0 0.00 0.07 0.00 91 1011.2
20260905054023 65 0 0.0 2.0 0.00 0.07 0.00 91 1011.3
20260905053519 65 0 0.0 2.0 0.00 0.07 0.00 92 1011.3
20260905053040 65 80 0.0 2.0 0.00 0.07 0.00 92 1011.4
20260905052521 65 76 0.0 2.0 0.00 0.07 0.00 93 1011.5
20260905052016 65 34 1.0 2.0 0.00 0.07 0.00 92 1011.5
20260905051551 65 93 0.0 2.0 0.00 0.07 0.00 92 1011.5
20260905051018 65 325 1.0 2.0 0.00 0.07 0.00 92 1011.5
20260905050518 66 76 1.0 2.0 0.00 0.07 0.00 92 1011.5
20260905050040 66 34 0.0 2.0 0.00 0.07 0.00 92 1011.7
20260905045520 66 0 1.0 2.0 0.00 0.11 0.00 91 1011.8
20260905045023 66 34 0.0 2.0 0.00 0.11 0.00 91 1011.7
20260905044544 66 51 1.0 2.0 0.00 0.11 0.00 90 1011.8
20260905044018 66 93 0.0 2.0 0.00 0.11 0.00 90 1011.7
20260905043520 66 0 0.0 2.0 0.00 0.11 0.00 90 1011.8
20260905043043 66 319 0.0 2.0 0.00 0.11 0.00 89 1011.9
20260905042521 66 34 0.0 2.0 0.00 0.11 0.00 89 1011.8
20260905042019 66 0 0.0 2.0 0.00 0.11 0.00 89 1011.8
20260905041538 67 22 0.0 2.0 0.00 0.11 0.00 89 1011.8
20260905041016 67 298 0.0 2.0 0.00 0.11 0.00 89 1011.6
20260905040517 67 0 0.0 2.0 0.00 0.11 0.00 89 1011.6
20260905040048 67 26 1.0 3.0 0.00 0.11 0.00 89 1011.7
20260905035518 67 30 1.0 3.0 0.00 0.11 0.11 88 1011.7
20260905035019 67 41 1.0 3.0 0.00 0.11 0.11 88 1011.8
20260905034542 67 71 1.0 3.0 0.00 0.11 0.11 87 1011.8
20260905034023 68 61 1.0 3.0 0.00 0.11 0.11 87 1011.9
20260905033523 68 57 1.0 3.0 0.00 0.11 0.11 87 1011.9
20260905033039 68 72 1.0 3.0 0.00 0.11 0.11 86 1011.8
20260905032520 68 41 1.0 4.0 0.00 0.11 0.11 85 1011.8
20260905032020 67 137 1.0 4.0 0.00 0.11 0.11 86 1011.9
20260905031544 67 93 1.0 4.0 0.00 0.11 0.11 87 1011.9
20260905031020 67 76 1.0 3.0 0.00 0.11 0.11 88 1011.9
20260905030518 66 46 1.0 3.0 0.00 0.11 0.11 90 1012.0
20260905030047 66 26 1.0 4.0 0.00 0.11 0.11 90 1011.8
20260905025520 66 61 1.0 4.0 0.00 0.11 0.11 90 1011.8
20260905025024 66 17 1.0 4.0 0.00 0.11 0.11 90 1011.7
20260905024540 66 51 1.0 4.0 0.00 0.11 0.11 91 1011.7
20260905024015 66 34 1.0 4.0 0.00 0.11 0.11 90 1011.7
20260905023527 66 30 0.0 2.0 0.00 0.11 0.11 91 1011.5
20260905023039 66 0 0.0 2.0 0.00 0.11 0.11 91 1011.6
20260905022517 66 93 0.0 2.0 0.00 0.11 0.11 91 1011.6
20260905022023 66 22 0.0 2.0 0.00 0.11 0.11 92 1011.6
20260905021545 66 34 0.0 2.0 0.00 0.11 0.11 91 1011.6
20260905021019 66 68 0.0 3.0 0.00 0.11 0.11 91 1011.7
20260905020522 66 26 0.0 3.0 0.00 0.11 0.11 91 1011.8
20260905020048 66 0 0.0 3.0 0.00 0.11 0.11 91 1011.8
20260905015516 67 9 0.0 2.0 0.00 0.11 0.11 90 1011.7
20260905015019 67 0 0.0 2.0 0.00 0.11 0.11 90 1011.7
20260905014540 67 51 1.0 2.0 0.00 0.11 0.11 90 1011.8
20260905014024 67 51 1.0 2.0 0.00 0.11 0.11 90 1011.8
20260905013520 67 76 0.0 2.0 0.00 0.11 0.11 89 1011.8
20260905013043 67 51 1.0 2.0 0.00 0.11 0.11 89 1011.8
20260905012519 67 72 0.0 2.0 0.00 0.11 0.11 89 1011.8
20260905012016 67 71 1.0 2.0 0.00 0.11 0.11 89 1011.8
20260905011600 67 68 0.0 2.0 0.00 0.11 0.11 89 1011.9
20260905011018 68 9 0.0 2.0 0.00 0.11 0.11 89 1011.9
20260905010519 68 111 0.0 2.0 0.00 0.11 0.11 89 1011.9
20260905010044 68 0 0.0 2.0 0.00 0.11 0.11 89 1012.0
20260905005521 68 59 0.0 2.0 0.00 0.11 0.11 89 1012.0
20260905005021 68 0 0.0 2.0 0.00 0.11 0.11 89 1011.9
20260905004540 69 9 0.0 2.0 0.00 0.11 0.11 88 1011.8
20260905004017 69 51 0.0 2.0 0.00 0.11 0.11 88 1011.7
20260905003520 69 0 0.0 2.0 0.00 0.11 0.11 87 1011.7
20260905003049 69 68 0.0 1.0 0.00 0.11 0.11 86 1011.7
20260905002522 69 0 0.0 1.0 0.00 0.11 0.11 85 1011.8
20260905002022 70 0 0.0 2.0 0.00 0.11 0.11 85 1011.8
20260905001544 70 0 0.0 2.0 0.00 0.11 0.11 84 1011.8
20260905001018 70 51 0.0 2.0 0.00 0.11 0.11 83 1011.8
20260905000520 70 51 1.0 2.0 0.00 0.11 0.11 83 1011.8
20260905000039 71 51 0.0 2.0 0.00 0.11 0.11 83 1011.7
20260904235517 71 0 0.0 2.0 0.00 0.11 0.11 81 1011.8
20260904235020 72 0 0.0 2.0 0.00 0.11 0.11 80 1011.8
20260904234538 72 0 0.0 2.0 0.00 0.11 0.11 79 1011.9
20260904234019 73 0 0.0 2.0 0.00 0.11 0.11 79 1011.8
20260904233523 73 93 0.0 2.0 0.00 0.11 0.11 78 1011.8
20260904233051 74 93 0.0 2.0 0.00 0.11 0.11 77 1011.8
20260904232521 74 111 0.0 2.0 0.00 0.11 0.11 76 1011.7
20260904232019 75 93 0.0 2.0 0.00 0.11 0.11 75 1011.6
20260904231542 75 9 0.0 2.0 0.00 0.11 0.11 74 1011.5
20260904231016 75 221 0.0 1.0 0.00 0.11 0.11 73 1011.6
20260904230518 76 0 0.0 1.0 0.00 0.11 0.11 72 1011.6
20260904230042 76 0 0.0 2.0 0.00 0.11 0.11 70 1011.5
20260904225621 76 0 0.0 3.0 0.00 0.11 0.11 70 1011.6
20260904225020 77 0 0.0 3.0 0.00 0.11 0.11 69 1011.6
20260904224539 77 0 1.0 3.0 0.00 0.11 0.11 69 1011.7
20260904224018 77 19 0.0 2.0 0.00 0.11 0.11 69 1011.8
20260904223522 77 319 0.0 5.0 0.00 0.11 0.11 68 1011.9
20260904223043 78 0 0.0 5.0 0.00 0.11 0.11 68 1011.9
20260904222521 78 291 0.0 5.0 0.00 0.11 0.11 67 1011.9
20260904222017 78 178 1.0 4.0 0.00 0.11 0.11 67 1011.6
20260904221541 79 0 0.0 4.0 0.00 0.11 0.11 66 1011.6
20260904221019 79 0 1.0 3.0 0.00 0.11 0.11 64 1011.5
20260904220521 79 137 1.0 6.0 0.00 0.11 0.11 65 1011.6
20260904220042 79 282 2.0 7.0 0.00 0.11 0.11 63 1011.6
20260904215523 80 316 2.0 7.0 0.00 0.11 0.11 62 1011.5
20260904215020 80 273 1.0 6.0 0.00 0.11 0.11 60 1011.6
20260904214542 80 9 1.0 6.0 0.00 0.11 0.11 61 1011.7
20260904214019 81 162 1.0 5.0 0.00 0.11 0.11 60 1011.7
20260904213519 81 303 2.0 6.0 0.00 0.11 0.11 58 1011.6
20260904213040 81 137 2.0 6.0 0.00 0.11 0.11 59 1011.5
20260904212524 81 137 1.0 7.0 0.00 0.11 0.11 61 1011.5
20260904212022 81 334 2.0 7.0 0.00 0.11 0.11 59 1011.5
20260904211539 81 57 1.0 7.0 0.00 0.11 0.11 57 1011.5
20260904211020 82 51 2.0 6.0 0.00 0.11 0.11 56 1011.6
20260904210520 82 221 1.0 6.0 0.00 0.11 0.11 60 1011.7
20260904210040 81 284 1.0 8.0 0.00 0.11 0.11 58 1011.7
20260904205522 82 339 1.0 8.0 0.00 0.11 0.11 55 1011.8
20260904205022 82 265 2.0 7.0 0.00 0.11 0.11 57 1011.9
20260904204538 81 238 1.0 7.0 0.00 0.11 0.11 58 1011.9
20260904204019 81 0 1.0 7.0 0.00 0.11 0.11 59 1011.9
20260904203521 81 301 1.0 11.0 0.00 0.11 0.11 59 1011.9
20260904203042 81 9 2.0 11.0 0.00 0.11 0.11 58 1012.1
20260904202521 81 106 3.0 9.0 0.00 0.11 0.11 56 1012.2
20260904202020 81 137 1.0 8.0 0.00 0.11 0.11 59 1012.1
20260904201542 81 16 3.0 12.0 0.00 0.11 0.11 57 1012.0
20260904201020 81 257 2.0 12.0 0.00 0.11 0.11 57 1012.1